Location: New Canada
(47.1017°N, 68.5042°W)
Time: 18:57:27
(UTC+00:00)

BEESAT 2 - Visible Passes

Search period start: 28 March 2023 00:00
Search period end: 07 April 2023 00:00
Orbit: 446 x 481 km, 64.9° (Epoch: 28 March)

Date Brightness Start Highest point End Pass type
(mag) Time Alt. Az. Time Alt. Az. Time Alt. Az.
29 Mar ? 09:33:18 10° SE 09:34:16 11° ESE 09:35:15 10° E visible
01 Apr ? 09:29:34 10° S 09:32:53 34° ESE 09:36:15 10° NE visible
02 Apr ? 08:57:24 10° S 09:00:22 24° ESE 09:03:21 10° ENE visible
03 Apr ? 08:25:24 10° SSE 08:27:48 17° ESE 08:30:12 10° ENE visible
04 Apr ? 07:53:53 10° SE 07:55:11 12° ESE 07:56:29 10° E visible
04 Apr ? 09:27:29 10° SW 09:31:07 72° NW 09:34:49 10° NNE visible
05 Apr ? 08:55:16 15° SSW 08:58:16 79° SE 09:01:57 10° NE visible
06 Apr ? 08:23:33 25° S 08:25:22 52° ESE 08:28:58 10° NE visible
